MGY47 SBRF-SBJP

Flight info

Callsign MGY47
Flight time N/A
Altitude 5500
Route DCT
Aircraft C172/L-SDE3/STD

Departure

Time 2026-05-07 15:56
Airport Recife/Guararapes - Gilberto Freyre International Airport (SBRF)

Arrival

Time N/A
Airport Presidente Castro Pinto International Airport (SBJP)
Time Latitude Longitude Altitude Speed Heading
2026-05-07 15:51 -8.14069 -34.91875 37 ft 0 kts 341°
2026-05-07 15:55 -8.13972 -34.91908 37 ft 41 kts 341°
2026-05-07 15:55 -8.13552 -34.92050 37 ft 81 kts 341°
2026-05-07 15:55 -8.12989 -34.92239 140 ft 85 kts 341°
2026-05-07 15:55 -8.12426 -34.92429 300 ft 83 kts 341°
2026-05-07 15:56 -8.11885 -34.92611 460 ft 82 kts 341°
2026-05-07 15:56 -8.11317 -34.92803 628 ft 88 kts 341°
2026-05-07 15:56 -8.10833 -34.92966 787 ft 90 kts 341°
2026-05-07 15:56 -8.10293 -34.93148 956 ft 92 kts 341°
2026-05-07 15:57 -8.09727 -34.93338 1125 ft 93 kts 341°
2026-05-07 15:57 -8.09133 -34.93539 1298 ft 94 kts 341°
2026-05-07 15:57 -8.08516 -34.93777 1475 ft 94 kts 349°
2026-05-07 15:57 -8.08034 -34.93659 1628 ft 92 kts 27°
2026-05-07 15:58 -8.07654 -34.93286 1784 ft 92 kts 72°
2026-05-07 15:58 -8.07740 -34.92700 1983 ft 89 kts 115°
2026-05-07 15:58 -8.08080 -34.92221 2159 ft 89 kts 135°
2026-05-07 15:58 -8.08630 -34.91994 2326 ft 90 kts 193°
2026-05-07 15:59 -8.09053 -34.92381 2520 ft 86 kts 233°
2026-05-07 15:59 -8.09376 -34.92756 2673 ft 86 kts 228°
2026-05-07 15:59 -8.09766 -34.93194 2845 ft 86 kts 228°
2026-05-07 15:59 -8.10111 -34.93582 2996 ft 87 kts 228°
2026-05-07 16:00 -8.10310 -34.93805 3082 ft 87 kts 228°
2026-05-07 16:00 -8.10573 -34.94101 3196 ft 86 kts 228°
2026-05-07 16:00 -8.10972 -34.94551 3367 ft 86 kts 228°
2026-05-07 16:00 -8.11374 -34.95003 3537 ft 86 kts 229°
2026-05-07 16:01 -8.11773 -34.95453 3706 ft 86 kts 230°
2026-05-07 16:01 -8.12170 -34.95901 3875 ft 85 kts 230°
2026-05-07 16:01 -8.12563 -34.96346 4042 ft 84 kts 231°
2026-05-07 16:01 -8.12952 -34.96785 4210 ft 83 kts 232°
2026-05-07 16:02 -8.13335 -34.97219 4377 ft 82 kts 233°
2026-05-07 16:02 -8.13714 -34.97649 4544 ft 80 kts 233°
2026-05-07 16:02 -8.14082 -34.98067 4709 ft 79 kts 234°
2026-05-07 16:02 -8.14442 -34.98475 4874 ft 77 kts 235°
2026-05-07 16:03 -8.14788 -34.98868 5036 ft 74 kts 236°
2026-05-07 16:03 -8.15125 -34.99252 5198 ft 72 kts 237°
2026-05-07 16:03 -8.15452 -34.99624 5354 ft 70 kts 238°
2026-05-07 16:03 -8.15775 -34.99993 5484 ft 71 kts 238°
2026-05-07 16:04 -8.16122 -35.00395 5554 ft 81 kts 237°
2026-05-07 16:04 -8.16517 -35.00854 5561 ft 92 kts 236°
2026-05-07 16:04 -8.16960 -35.01368 5538 ft 101 kts 236°
2026-05-07 16:04 -8.17436 -35.01917 5518 ft 106 kts 235°
2026-05-07 16:05 -8.17895 -35.02501 5506 ft 106 kts 242°
2026-05-07 16:05 -8.18273 -35.03147 5503 ft 105 kts 248°
2026-05-07 16:05 -8.18593 -35.03817 5503 ft 106 kts 251°
2026-05-07 16:05 -8.18885 -35.04501 5503 ft 107 kts 252°
2026-05-07 16:06 -8.19169 -35.05204 5502 ft 107 kts 253°
2026-05-07 16:06 -8.19445 -35.05905 5501 ft 107 kts 253°
2026-05-07 16:06 -8.19716 -35.06604 5500 ft 107 kts 253°
2026-05-07 16:06 -8.19987 -35.07308 5500 ft 107 kts 254°
2026-05-07 16:07 -8.20258 -35.08012 5500 ft 107 kts 254°
2026-05-07 16:07 -8.20528 -35.08716 5500 ft 107 kts 254°
2026-05-07 16:07 -8.20798 -35.09421 5500 ft 107 kts 254°
2026-05-07 16:07 -8.20980 -35.09896 5500 ft 107 kts 254°
2026-05-07 16:08 -8.21254 -35.10610 5500 ft 107 kts 254°
2026-05-07 16:08 -8.21523 -35.11312 5500 ft 107 kts 254°
2026-05-07 16:08 -8.21794 -35.12019 5500 ft 107 kts 254°
2026-05-07 16:08 -8.22063 -35.12721 5500 ft 107 kts 254°
2026-05-07 16:09 -8.22333 -35.13427 5500 ft 107 kts 254°
2026-05-07 16:09 -8.22601 -35.14127 5500 ft 108 kts 254°
2026-05-07 16:09 -8.22870 -35.14829 5500 ft 108 kts 254°
2026-05-07 16:09 -8.23144 -35.15544 5500 ft 108 kts 254°
2026-05-07 16:10 -8.23410 -35.16239 5500 ft 108 kts 254°
2026-05-07 16:10 -8.23681 -35.16946 5500 ft 108 kts 254°
2026-05-07 16:10 -8.23951 -35.17650 5500 ft 108 kts 254°
2026-05-07 16:10 -8.24223 -35.18361 5500 ft 108 kts 254°
2026-05-07 16:11 -8.24493 -35.19066 5500 ft 108 kts 254°
2026-05-07 16:11 -8.24765 -35.19776 5500 ft 108 kts 254°
2026-05-07 16:11 -8.25036 -35.20484 5500 ft 108 kts 254°
2026-05-07 16:11 -8.25306 -35.21190 5500 ft 108 kts 254°
2026-05-07 16:12 -8.25576 -35.21896 5500 ft 108 kts 254°
2026-05-07 16:12 -8.25847 -35.22603 5500 ft 108 kts 254°
2026-05-07 16:12 -8.26118 -35.23312 5500 ft 108 kts 254°
2026-05-07 16:12 -8.26388 -35.24018 5500 ft 108 kts 254°
2026-05-07 16:13 -8.26659 -35.24725 5500 ft 108 kts 254°
2026-05-07 16:13 -8.26930 -35.25433 5500 ft 108 kts 254°
2026-05-07 16:13 -8.27197 -35.26132 5500 ft 108 kts 254°
2026-05-07 16:13 -8.27467 -35.26837 5500 ft 108 kts 254°
2026-05-07 16:14 -8.27738 -35.27546 5500 ft 108 kts 254°
2026-05-07 16:14 -8.28008 -35.28251 5500 ft 108 kts 254°
2026-05-07 16:14 -8.28279 -35.28959 5500 ft 108 kts 254°
2026-05-07 16:14 -8.28549 -35.29664 5500 ft 108 kts 254°
2026-05-07 16:15 -8.28820 -35.30372 5500 ft 108 kts 254°
2026-05-07 16:15 -8.29089 -35.31078 5500 ft 108 kts 254°
2026-05-07 16:15 -8.29360 -35.31786 5500 ft 108 kts 254°
2026-05-07 16:15 -8.29631 -35.32493 5500 ft 108 kts 254°
2026-05-07 16:16 -8.29900 -35.33198 5500 ft 108 kts 254°
2026-05-07 16:16 -8.30172 -35.33908 5500 ft 108 kts 254°
2026-05-07 16:16 -8.30442 -35.34615 5500 ft 108 kts 254°
2026-05-07 16:16 -8.30713 -35.35324 5500 ft 108 kts 254°
2026-05-07 16:17 -8.30984 -35.36031 5500 ft 108 kts 254°
2026-05-07 16:17 -8.31254 -35.36738 5500 ft 108 kts 254°
2026-05-07 16:17 -8.31524 -35.37444 5500 ft 108 kts 254°
2026-05-07 16:17 -8.31794 -35.38151 5500 ft 108 kts 254°
2026-05-07 16:18 -8.32065 -35.38860 5500 ft 108 kts 254°
2026-05-07 16:18 -8.32335 -35.39568 5499 ft 108 kts 254°
2026-05-07 16:18 -8.32603 -35.40267 5500 ft 108 kts 254°
2026-05-07 16:18 -8.32873 -35.40975 5500 ft 108 kts 254°
2026-05-07 16:19 -8.33139 -35.41671 5500 ft 108 kts 254°
2026-05-07 16:19 -8.33431 -35.42434 5500 ft 108 kts 254°
2026-05-07 16:19 -8.33705 -35.43152 5500 ft 108 kts 254°
2026-05-07 16:19 -8.33977 -35.43863 5500 ft 108 kts 254°
2026-05-07 16:20 -8.34249 -35.44574 5500 ft 108 kts 254°
2026-05-07 16:20 -8.34520 -35.45285 5500 ft 108 kts 254°
2026-05-07 16:20 -8.34792 -35.45995 5500 ft 108 kts 254°
2026-05-07 16:20 -8.35064 -35.46708 5500 ft 108 kts 254°
2026-05-07 16:21 -8.35332 -35.47409 5500 ft 108 kts 254°
2026-05-07 16:21 -8.35604 -35.48123 5500 ft 109 kts 254°
2026-05-07 16:21 -8.35877 -35.48836 5500 ft 109 kts 254°
2026-05-07 16:21 -8.36148 -35.49546 5500 ft 109 kts 254°
2026-05-07 16:22 -8.36423 -35.50267 5500 ft 109 kts 254°
2026-05-07 16:22 -8.36695 -35.50980 5500 ft 109 kts 254°
2026-05-07 16:22 -8.36966 -35.51689 5500 ft 109 kts 254°
2026-05-07 16:22 -8.37238 -35.52401 5500 ft 109 kts 254°
2026-05-07 16:23 -8.37506 -35.53104 5500 ft 109 kts 254°
2026-05-07 16:23 -8.37781 -35.53823 5500 ft 109 kts 254°
2026-05-07 16:23 -8.38053 -35.54536 5500 ft 109 kts 254°
2026-05-07 16:23 -8.38324 -35.55246 5500 ft 109 kts 254°
2026-05-07 16:24 -8.38596 -35.55958 5500 ft 109 kts 254°
2026-05-07 16:24 -8.38868 -35.56671 5500 ft 109 kts 254°
2026-05-07 16:24 -8.39139 -35.57382 5500 ft 109 kts 254°
2026-05-07 16:24 -8.39411 -35.58093 5500 ft 109 kts 254°
2026-05-07 16:25 -8.39683 -35.58808 5500 ft 109 kts 254°
2026-05-07 16:25 -8.39954 -35.59518 5500 ft 109 kts 254°
2026-05-07 16:25 -8.40226 -35.60231 5500 ft 109 kts 254°
2026-05-07 16:25 -8.40498 -35.60943 5500 ft 109 kts 254°
2026-05-07 16:26 -8.40773 -35.61665 5500 ft 109 kts 254°
2026-05-07 16:26 -8.41045 -35.62377 5500 ft 109 kts 254°
2026-05-07 16:26 -8.41318 -35.63093 5499 ft 109 kts 254°
2026-05-07 16:26 -8.41499 -35.63569 5500 ft 109 kts 254°
2026-05-07 16:27 -8.41861 -35.64516 5500 ft 109 kts 254°
2026-05-07 16:27 -8.42134 -35.65232 5500 ft 109 kts 254°
2026-05-07 16:27 -8.42407 -35.65948 5500 ft 109 kts 254°
2026-05-07 16:27 -8.42681 -35.66666 5500 ft 109 kts 254°
2026-05-07 16:28 -8.42957 -35.67390 5500 ft 109 kts 254°
2026-05-07 16:28 -8.43227 -35.68099 5500 ft 109 kts 254°
2026-05-07 16:28 -8.43501 -35.68817 5500 ft 109 kts 254°
2026-05-07 16:28 -8.43774 -35.69534 5500 ft 109 kts 254°
2026-05-07 16:29 -8.44048 -35.70252 5487 ft 109 kts 253°
2026-05-07 16:29 -8.44320 -35.70972 5556 ft 113 kts 254°
2026-05-07 16:29 -8.44616 -35.71752 5530 ft 124 kts 253°
2026-05-07 16:29 -8.44934 -35.72586 5482 ft 128 kts 253°
2026-05-07 16:30 -8.45245 -35.73396 5461 ft 117 kts 253°
2026-05-07 16:30 -8.45438 -35.73896 5484 ft 113 kts 253°
2026-05-07 16:30 -8.45797 -35.74833 5596 ft 103 kts 254°
2026-05-07 16:30 -8.45969 -35.75285 5638 ft 101 kts 254°
2026-05-07 16:31 -8.46220 -35.75945 5705 ft 99 kts 254°
2026-05-07 16:31 -8.46462 -35.76580 5774 ft 97 kts 254°
2026-05-07 16:31 -8.46703 -35.77215 5844 ft 96 kts 254°
2026-05-07 16:31 -8.46941 -35.77840 5916 ft 94 kts 254°
2026-05-07 16:32 -8.47175 -35.78454 5989 ft 93 kts 254°
2026-05-07 16:32 -8.47406 -35.79060 6061 ft 92 kts 254°
2026-05-07 16:32 -8.47634 -35.79659 6134 ft 91 kts 254°
2026-05-07 16:32 -8.47859 -35.80250 6207 ft 90 kts 254°
2026-05-07 16:33 -8.48082 -35.80835 6281 ft 89 kts 254°
2026-05-07 16:33 -8.48302 -35.81412 6354 ft 88 kts 253°
2026-05-07 16:33 -8.48519 -35.81983 6427 ft 87 kts 253°
2026-05-07 16:33 -8.48735 -35.82550 6490 ft 87 kts 253°
2026-05-07 16:34 -8.48954 -35.83126 6511 ft 90 kts 253°
2026-05-07 16:34 -8.49182 -35.83727 6511 ft 93 kts 253°
2026-05-07 16:34 -8.49421 -35.84354 6507 ft 95 kts 253°
2026-05-07 16:34 -8.49657 -35.84973 6504 ft 96 kts 253°
2026-05-07 16:35 -8.49897 -35.85603 6502 ft 96 kts 253°
2026-05-07 16:35 -8.50134 -35.86227 6501 ft 96 kts 253°
2026-05-07 16:35 -8.50375 -35.86859 6500 ft 96 kts 253°
2026-05-07 16:35 -8.50618 -35.87498 6500 ft 96 kts 253°
2026-05-07 16:36 -8.50859 -35.88130 6500 ft 96 kts 253°
2026-05-07 16:36 -8.51099 -35.88761 6500 ft 96 kts 253°
2026-05-07 16:36 -8.51339 -35.89391 6499 ft 96 kts 253°
2026-05-07 16:36 -8.51578 -35.90021 6519 ft 99 kts 253°
2026-05-07 16:37 -8.51837 -35.90704 6545 ft 111 kts 252°
2026-05-07 16:37 -8.52124 -35.91461 6517 ft 118 kts 252°
2026-05-07 16:37 -8.52416 -35.92227 6427 ft 112 kts 252°
2026-05-07 16:37 -8.52684 -35.92925 6471 ft 102 kts 252°
2026-05-07 16:38 -8.52934 -35.93581 6487 ft 98 kts 253°
2026-05-07 16:38 -8.53181 -35.94230 6494 ft 97 kts 253°
2026-05-07 16:38 -8.53422 -35.94865 6498 ft 96 kts 253°
2026-05-07 16:38 -8.53662 -35.95497 6499 ft 96 kts 253°
2026-05-07 16:39 -8.53902 -35.96128 6500 ft 96 kts 253°
2026-05-07 16:39 -8.54143 -35.96760 6500 ft 96 kts 253°
2026-05-07 16:39 -8.54383 -35.97392 6500 ft 96 kts 253°
2026-05-07 16:39 -8.54623 -35.98023 6500 ft 96 kts 253°
2026-05-07 16:40 -8.54863 -35.98655 6500 ft 96 kts 253°
2026-05-07 16:40 -8.55103 -35.99285 6500 ft 96 kts 253°
2026-05-07 16:40 -8.55344 -35.99919 6500 ft 96 kts 253°
2026-05-07 16:40 -8.55587 -36.00559 6500 ft 96 kts 253°
2026-05-07 16:41 -8.55827 -36.01190 6500 ft 96 kts 253°
2026-05-07 16:41 -8.56071 -36.01831 6500 ft 96 kts 253°
2026-05-07 16:41 -8.56311 -36.02463 6500 ft 96 kts 253°
2026-05-07 16:41 -8.56551 -36.03094 6500 ft 96 kts 253°
2026-05-07 16:42 -8.56795 -36.03735 6500 ft 96 kts 253°
2026-05-07 16:42 -8.57035 -36.04367 6500 ft 96 kts 253°
2026-05-07 16:42 -8.57279 -36.05008 6500 ft 96 kts 253°
2026-05-07 16:42 -8.57519 -36.05639 6500 ft 96 kts 253°
2026-05-07 16:43 -8.57759 -36.06271 6500 ft 96 kts 253°
2026-05-07 16:43 -8.58001 -36.06910 6500 ft 96 kts 253°
2026-05-07 16:43 -8.58243 -36.07544 6500 ft 96 kts 253°
2026-05-07 16:43 -8.58482 -36.08175 6500 ft 96 kts 253°
2026-05-07 16:44 -8.58723 -36.08809 6500 ft 96 kts 253°
2026-05-07 16:44 -8.58963 -36.09441 6500 ft 96 kts 253°
2026-05-07 16:44 -8.59207 -36.10082 6500 ft 96 kts 253°
2026-05-07 16:44 -8.59447 -36.10715 6500 ft 96 kts 253°
2026-05-07 16:45 -8.59687 -36.11347 6500 ft 96 kts 253°
2026-05-07 16:45 -8.59927 -36.11979 6500 ft 96 kts 253°
2026-05-07 16:45 -8.60167 -36.12610 6500 ft 96 kts 253°
2026-05-07 16:45 -8.60408 -36.13244 6500 ft 96 kts 253°
2026-05-07 16:46 -8.60644 -36.13866 6500 ft 96 kts 253°
2026-05-07 16:46 -8.60893 -36.14521 6500 ft 96 kts 253°
2026-05-07 16:46 -8.61134 -36.15155 6500 ft 96 kts 253°
2026-05-07 16:46 -8.61374 -36.15788 6500 ft 96 kts 253°
2026-05-07 16:47 -8.61610 -36.16411 6500 ft 96 kts 253°
2026-05-07 16:47 -8.61854 -36.17052 6500 ft 96 kts 253°
2026-05-07 16:47 -8.62094 -36.17684 6500 ft 96 kts 253°
2026-05-07 16:47 -8.62333 -36.18315 6500 ft 96 kts 253°
2026-05-07 16:48 -8.62574 -36.18948 6500 ft 96 kts 253°
2026-05-07 16:48 -8.62813 -36.19579 6500 ft 96 kts 253°
2026-05-07 16:48 -8.62972 -36.19998 6500 ft 96 kts 253°
2026-05-07 16:48 -8.63212 -36.20630 6500 ft 96 kts 253°
2026-05-07 16:49 -8.63452 -36.21263 6500 ft 96 kts 253°
2026-05-07 16:49 -8.63694 -36.21899 6500 ft 96 kts 253°
2026-05-07 16:49 -8.63939 -36.22545 6500 ft 96 kts 253°
2026-05-07 16:49 -8.64178 -36.23176 6500 ft 96 kts 253°
2026-05-07 16:50 -8.64418 -36.23808 6500 ft 96 kts 253°
2026-05-07 16:50 -8.64663 -36.24453 6500 ft 96 kts 253°
2026-05-07 16:50 -8.64904 -36.25088 6500 ft 96 kts 253°
2026-05-07 16:50 -8.65144 -36.25721 6500 ft 96 kts 253°
2026-05-07 16:51 -8.65381 -36.26345 6500 ft 96 kts 253°
2026-05-07 16:51 -8.65624 -36.26986 6500 ft 96 kts 253°
2026-05-07 16:51 -8.65864 -36.27618 6500 ft 96 kts 253°
2026-05-07 16:51 -8.66105 -36.28254 6500 ft 96 kts 253°
2026-05-07 16:52 -8.66347 -36.28889 6478 ft 95 kts 252°
2026-05-07 16:52 -8.66578 -36.29501 6475 ft 92 kts 253°
2026-05-07 16:52 -8.66805 -36.30101 6506 ft 91 kts 253°
2026-05-07 16:52 -8.67035 -36.30706 6508 ft 93 kts 253°
2026-05-07 16:53 -8.67270 -36.31327 6505 ft 95 kts 253°
2026-05-07 16:53 -8.67508 -36.31955 6503 ft 96 kts 253°
2026-05-07 16:53 -8.67750 -36.32593 6501 ft 96 kts 253°
2026-05-07 16:53 -8.67990 -36.33225 6501 ft 96 kts 253°
2026-05-07 16:54 -8.68230 -36.33858 6500 ft 96 kts 253°
2026-05-07 16:54 -8.68473 -36.34499 6500 ft 96 kts 253°
2026-05-07 16:54 -8.68713 -36.35131 6500 ft 96 kts 253°
2026-05-07 16:54 -8.68952 -36.35763 6500 ft 96 kts 253°
2026-05-07 16:55 -8.69192 -36.36396 6500 ft 96 kts 253°
2026-05-07 16:55 -8.69436 -36.37038 6500 ft 96 kts 253°
2026-05-07 16:55 -8.69675 -36.37670 6500 ft 96 kts 253°
2026-05-07 16:55 -8.69915 -36.38302 6500 ft 96 kts 253°
2026-05-07 16:56 -8.70154 -36.38935 6500 ft 96 kts 253°
2026-05-07 16:56 -8.70394 -36.39567 6500 ft 96 kts 253°
2026-05-07 16:56 -8.70877 -36.40842 6500 ft 96 kts 253°
2026-05-07 16:57 -8.71116 -36.41474 6500 ft 96 kts 253°
2026-05-07 16:57 -8.71356 -36.42105 6500 ft 96 kts 253°
2026-05-07 16:57 -8.71599 -36.42749 6500 ft 96 kts 253°
2026-05-07 16:57 -8.71840 -36.43383 6500 ft 96 kts 253°
2026-05-07 16:58 -8.72079 -36.44014 6500 ft 96 kts 253°
2026-05-07 16:58 -8.72320 -36.44650 6500 ft 96 kts 253°
2026-05-07 16:58 -8.72563 -36.45293 6500 ft 96 kts 253°
2026-05-07 16:58 -8.72802 -36.45924 6500 ft 96 kts 253°
2026-05-07 16:59 -8.73042 -36.46558 6500 ft 96 kts 253°
2026-05-07 16:59 -8.73285 -36.47199 6500 ft 96 kts 253°
2026-05-07 16:59 -8.73524 -36.47832 6500 ft 96 kts 253°
2026-05-07 16:59 -8.73765 -36.48466 6500 ft 96 kts 253°
2026-05-07 17:00 -8.74005 -36.49101 6500 ft 96 kts 253°
2026-05-07 17:00 -8.74244 -36.49733 6500 ft 96 kts 253°
2026-05-07 17:00 -8.74484 -36.50367 6500 ft 96 kts 253°
2026-05-07 17:00 -8.74724 -36.51002 6500 ft 96 kts 253°
2026-05-07 17:01 -8.74964 -36.51633 6500 ft 96 kts 253°
2026-05-07 17:01 -8.75203 -36.52266 6500 ft 96 kts 253°
2026-05-07 17:01 -8.75443 -36.52900 6500 ft 96 kts 253°
2026-05-07 17:01 -8.75604 -36.53326 6500 ft 96 kts 253°
2026-05-07 17:02 -8.75845 -36.53962 6500 ft 96 kts 253°
2026-05-07 17:02 -8.76087 -36.54603 6500 ft 96 kts 253°
2026-05-07 17:02 -8.76327 -36.55236 6500 ft 96 kts 253°
2026-05-07 17:02 -8.76567 -36.55866 6503 ft 95 kts 253°
2026-05-07 17:03 -8.76813 -36.56522 6555 ft 106 kts 252°
2026-05-07 17:03 -8.77091 -36.57261 6521 ft 115 kts 252°
2026-05-07 17:03 -8.77378 -36.58021 6402 ft 114 kts 253°
2026-05-07 17:03 -8.77646 -36.58727 6465 ft 102 kts 252°
2026-05-07 17:04 -8.77895 -36.59381 6485 ft 98 kts 253°
2026-05-07 17:04 -8.78138 -36.60022 6494 ft 97 kts 253°
2026-05-07 17:04 -8.78378 -36.60656 6498 ft 96 kts 253°
2026-05-07 17:04 -8.78617 -36.61289 6500 ft 96 kts 253°
2026-05-07 17:05 -8.78857 -36.61923 6500 ft 96 kts 253°
2026-05-07 17:05 -8.79096 -36.62555 6500 ft 96 kts 253°
2026-05-07 17:05 -8.79335 -36.63187 6500 ft 96 kts 253°
2026-05-07 17:05 -8.79575 -36.63822 6500 ft 96 kts 253°
2026-05-07 17:06 -8.79814 -36.64455 6500 ft 96 kts 253°
2026-05-07 17:06 -8.80056 -36.65095 6500 ft 96 kts 253°
2026-05-07 17:06 -8.80296 -36.65729 6500 ft 96 kts 253°
2026-05-07 17:06 -8.80535 -36.66362 6500 ft 96 kts 253°
2026-05-07 17:07 -8.80775 -36.66996 6500 ft 96 kts 253°
2026-05-07 17:07 -8.81014 -36.67629 6500 ft 96 kts 253°
2026-05-07 17:07 -8.81253 -36.68262 6500 ft 96 kts 253°
2026-05-07 17:07 -8.81440 -36.68757 6500 ft 96 kts 253°
2026-05-07 17:08 -8.81620 -36.69232 6500 ft 96 kts 253°
2026-05-07 17:08 -8.81868 -36.69888 6500 ft 96 kts 253°
2026-05-07 17:08 -8.82107 -36.70522 6500 ft 96 kts 253°
2026-05-07 17:08 -8.82344 -36.71149 6500 ft 96 kts 253°
2026-05-07 17:09 -8.82581 -36.71777 6500 ft 96 kts 253°
2026-05-07 17:09 -8.82830 -36.72435 6500 ft 96 kts 253°
2026-05-07 17:09 -8.83069 -36.73069 6500 ft 96 kts 253°
2026-05-07 17:09 -8.83309 -36.73703 6500 ft 96 kts 253°
2026-05-07 17:10 -8.83552 -36.74346 6500 ft 96 kts 253°
2026-05-07 17:10 -8.83792 -36.74981 6500 ft 96 kts 253°
2026-05-07 17:10 -8.84031 -36.75615 6500 ft 96 kts 253°
2026-05-07 17:10 -8.84274 -36.76257 6500 ft 96 kts 253°
2026-05-07 17:11 -8.84513 -36.76890 6500 ft 96 kts 253°
2026-05-07 17:11 -8.84752 -36.77524 6500 ft 96 kts 253°
2026-05-07 17:11 -8.84991 -36.78157 6500 ft 96 kts 253°
2026-05-07 17:11 -8.85231 -36.78792 6500 ft 96 kts 253°
2026-05-07 17:12 -8.85471 -36.79426 6500 ft 96 kts 253°
2026-05-07 17:12 -8.85713 -36.80069 6500 ft 96 kts 253°
2026-05-07 17:12 -8.85953 -36.80704 6500 ft 96 kts 253°
2026-05-07 17:12 -8.86192 -36.81337 6500 ft 96 kts 253°
2026-05-07 17:13 -8.86354 -36.81766 6500 ft 96 kts 253°
2026-05-07 17:13 -8.86593 -36.82399 6500 ft 96 kts 253°
2026-05-07 17:13 -8.86833 -36.83034 6500 ft 96 kts 253°
2026-05-07 17:13 -8.87071 -36.83667 6500 ft 96 kts 253°
2026-05-07 17:14 -8.87310 -36.84301 6500 ft 96 kts 253°
2026-05-07 17:14 -8.87549 -36.84934 6500 ft 96 kts 253°
2026-05-07 17:14 -8.87793 -36.85578 6500 ft 96 kts 253°
2026-05-07 17:14 -8.88031 -36.86211 6500 ft 96 kts 253°
2026-05-07 17:15 -8.88271 -36.86847 6500 ft 96 kts 253°
2026-05-07 17:15 -8.88510 -36.87480 6500 ft 96 kts 253°
2026-05-07 17:15 -8.88749 -36.88113 6500 ft 96 kts 253°
2026-05-07 17:15 -8.88992 -36.88757 6500 ft 96 kts 253°
2026-05-07 17:16 -8.89228 -36.89384 6500 ft 96 kts 253°
2026-05-07 17:16 -8.89470 -36.90024 6500 ft 96 kts 253°
2026-05-07 17:16 -8.89709 -36.90657 6500 ft 96 kts 253°
2026-05-07 17:16 -8.89951 -36.91301 6500 ft 96 kts 253°
2026-05-07 17:17 -8.90187 -36.91925 6500 ft 96 kts 253°
2026-05-07 17:17 -8.90429 -36.92567 6500 ft 96 kts 253°
2026-05-07 17:17 -8.90668 -36.93202 6500 ft 96 kts 253°
2026-05-07 17:17 -8.90908 -36.93838 6500 ft 96 kts 253°
2026-05-07 17:18 -8.91147 -36.94472 6500 ft 96 kts 253°
2026-05-07 17:18 -8.91383 -36.95097 6500 ft 96 kts 253°
2026-05-07 17:18 -8.91626 -36.95741 6500 ft 96 kts 253°
2026-05-07 17:18 -8.91866 -36.96377 6500 ft 96 kts 253°
2026-05-07 17:19 -8.92108 -36.97021 6500 ft 96 kts 253°
2026-05-07 17:19 -8.92347 -36.97655 6500 ft 96 kts 253°
2026-05-07 17:19 -8.92586 -36.98289 6500 ft 96 kts 253°
2026-05-07 17:19 -8.92825 -36.98924 6500 ft 96 kts 253°
2026-05-07 17:20 -8.93065 -36.99558 6500 ft 96 kts 253°
2026-05-07 17:20 -8.93304 -37.00194 6500 ft 96 kts 253°
2026-05-07 17:20 -8.93546 -37.00836 6500 ft 96 kts 253°
2026-05-07 17:20 -8.93785 -37.01469 6500 ft 96 kts 253°
2026-05-07 17:21 -8.94025 -37.02107 6500 ft 96 kts 253°
2026-05-07 17:21 -8.94264 -37.02741 6500 ft 96 kts 253°
2026-05-07 17:21 -8.94503 -37.03375 6500 ft 96 kts 253°
2026-05-07 17:21 -8.94742 -37.04010 6500 ft 96 kts 253°
2026-05-07 17:22 -8.94984 -37.04651 6500 ft 96 kts 253°
2026-05-07 17:22 -8.95223 -37.05286 6500 ft 96 kts 253°
2026-05-07 17:22 -8.95462 -37.05921 6500 ft 96 kts 253°
2026-05-07 17:22 -8.95701 -37.06557 6500 ft 96 kts 253°
2026-05-07 17:23 -8.95943 -37.07200 6500 ft 96 kts 253°
2026-05-07 17:23 -8.96182 -37.07834 6500 ft 96 kts 253°
2026-05-07 17:23 -8.96424 -37.08477 6500 ft 96 kts 253°
2026-05-07 17:23 -8.96667 -37.09120 6500 ft 96 kts 253°
2026-05-07 17:24 -8.96907 -37.09758 6500 ft 96 kts 253°
2026-05-07 17:24 -8.97149 -37.10400 6500 ft 96 kts 253°
2026-05-07 17:24 -8.97387 -37.11034 6500 ft 96 kts 253°
2026-05-07 17:24 -8.97626 -37.11669 6500 ft 96 kts 253°
2026-05-07 17:25 -8.97865 -37.12303 6500 ft 96 kts 253°
2026-05-07 17:25 -8.98104 -37.12937 6500 ft 96 kts 253°
2026-05-07 17:25 -8.98346 -37.13581 6500 ft 96 kts 253°
2026-05-07 17:25 -8.98516 -37.14032 6500 ft 96 kts 253°
2026-05-07 17:26 -8.98753 -37.14664 6500 ft 96 kts 253°
2026-05-07 17:26 -8.98992 -37.15299 6500 ft 96 kts 253°
2026-05-07 17:26 -8.99231 -37.15932 6500 ft 96 kts 253°
2026-05-07 17:26 -8.99470 -37.16567 6500 ft 96 kts 253°
2026-05-07 17:27 -8.99709 -37.17203 6500 ft 96 kts 253°
2026-05-07 17:27 -8.99948 -37.17837 6500 ft 96 kts 253°
2026-05-07 17:27 -9.00190 -37.18480 6500 ft 96 kts 253°
2026-05-07 17:27 -9.00429 -37.19116 6500 ft 96 kts 253°
2026-05-07 17:28 -9.00667 -37.19750 6500 ft 96 kts 253°
2026-05-07 17:28 -9.00906 -37.20385 6500 ft 96 kts 253°
2026-05-07 17:28 -9.01145 -37.21019 6500 ft 96 kts 253°
2026-05-07 17:28 -9.01386 -37.21662 6500 ft 96 kts 253°
2026-05-07 17:29 -9.01626 -37.22298 6500 ft 96 kts 253°
2026-05-07 17:29 -9.01865 -37.22935 6500 ft 96 kts 253°
2026-05-07 17:29 -9.02026 -37.23363 6500 ft 96 kts 253°
2026-05-07 17:29 -9.02348 -37.24219 6500 ft 96 kts 253°
2026-05-07 17:30 -9.02590 -37.24861 6500 ft 96 kts 253°
2026-05-07 17:30 -9.02828 -37.25497 6500 ft 96 kts 253°
2026-05-07 17:30 -9.03070 -37.26140 6500 ft 96 kts 253°
2026-05-07 17:30 -9.03308 -37.26773 6500 ft 96 kts 253°
2026-05-07 17:31 -9.03547 -37.27408 6500 ft 96 kts 253°
2026-05-07 17:31 -9.03789 -37.28052 6500 ft 96 kts 253°
2026-05-07 17:31 -9.04024 -37.28678 6500 ft 96 kts 253°
2026-05-07 17:31 -9.04267 -37.29322 6500 ft 96 kts 253°
2026-05-07 17:32 -9.04505 -37.29956 6500 ft 96 kts 253°
2026-05-07 17:32 -9.04744 -37.30593 6500 ft 96 kts 253°
2026-05-07 17:32 -9.04983 -37.31228 6500 ft 96 kts 253°
2026-05-07 17:32 -9.05140 -37.31647 6500 ft 96 kts 253°
2026-05-07 17:33 -9.05461 -37.32499 6500 ft 96 kts 253°
2026-05-07 17:33 -9.05697 -37.33129 6500 ft 96 kts 253°
2026-05-07 17:33 -9.05936 -37.33766 6500 ft 96 kts 253°
2026-05-07 17:33 -9.06178 -37.34409 6500 ft 96 kts 253°
2026-05-07 17:34 -9.06416 -37.35043 6500 ft 96 kts 253°
2026-05-07 17:34 -9.06655 -37.35678 6500 ft 96 kts 253°
2026-05-07 17:34 -9.06892 -37.36311 6500 ft 96 kts 253°
2026-05-07 17:34 -9.07131 -37.36946 6500 ft 96 kts 253°
2026-05-07 17:35 -9.07370 -37.37583 6500 ft 96 kts 253°
2026-05-07 17:35 -9.07608 -37.38217 6500 ft 96 kts 253°
2026-05-07 17:35 -9.07846 -37.38851 6500 ft 96 kts 253°
2026-05-07 17:35 -9.08085 -37.39486 6500 ft 96 kts 253°
2026-05-07 17:36 -9.08323 -37.40121 6500 ft 96 kts 253°
2026-05-07 17:36 -9.08564 -37.40763 6500 ft 96 kts 253°
2026-05-07 17:36 -9.08804 -37.41401 6500 ft 96 kts 253°
2026-05-07 17:36 -9.09042 -37.42035 6500 ft 96 kts 253°
2026-05-07 17:37 -9.09280 -37.42670 6500 ft 96 kts 253°
2026-05-07 17:37 -9.09519 -37.43307 6500 ft 96 kts 253°
2026-05-07 17:37 -9.09758 -37.43943 6500 ft 96 kts 253°
2026-05-07 17:37 -9.09997 -37.44579 6500 ft 97 kts 253°
2026-05-07 17:38 -9.10235 -37.45215 6500 ft 97 kts 253°
2026-05-07 17:38 -9.10474 -37.45850 6500 ft 97 kts 253°
2026-05-07 17:38 -9.10712 -37.46486 6500 ft 97 kts 253°
2026-05-07 17:38 -9.10953 -37.47128 6500 ft 97 kts 253°
2026-05-07 17:39 -9.11192 -37.47763 6500 ft 97 kts 253°
2026-05-07 17:39 -9.11430 -37.48399 6500 ft 97 kts 253°
2026-05-07 17:39 -9.11669 -37.49035 6500 ft 97 kts 253°
2026-05-07 17:39 -9.11907 -37.49671 6500 ft 97 kts 253°
2026-05-07 17:40 -9.12148 -37.50310 6528 ft 97 kts 252°
2026-05-07 17:40 -9.12399 -37.50985 6568 ft 111 kts 252°
2026-05-07 17:40 -9.12587 -37.51492 6535 ft 119 kts 252°
2026-05-07 17:40 -9.12885 -37.52291 6511 ft 123 kts 252°
2026-05-07 17:41 -9.13187 -37.53093 6415 ft 113 kts 252°
2026-05-07 17:41 -9.13454 -37.53796 6466 ft 103 kts 253°
2026-05-07 17:41 -9.13706 -37.54465 6485 ft 99 kts 253°
2026-05-07 17:41 -9.13950 -37.55117 6494 ft 97 kts 253°
2026-05-07 17:42 -9.14190 -37.55756 6498 ft 97 kts 253°
2026-05-07 17:42 -9.14428 -37.56392 6500 ft 97 kts 253°
2026-05-07 17:42 -9.14666 -37.57028 6500 ft 97 kts 253°
2026-05-07 17:42 -9.14904 -37.57663 6500 ft 97 kts 253°
2026-05-07 17:43 -9.15146 -37.58307 6500 ft 97 kts 253°
2026-05-07 17:43 -9.15387 -37.58951 6500 ft 97 kts 253°
2026-05-07 17:43 -9.15638 -37.59620 6500 ft 97 kts 253°
2026-05-07 17:43 -9.15899 -37.60318 6500 ft 97 kts 253°
2026-05-07 17:44 -9.16071 -37.60776 6500 ft 97 kts 253°
2026-05-07 17:44 -9.16332 -37.61473 6500 ft 97 kts 253°
2026-05-07 17:44 -9.16581 -37.62136 6500 ft 97 kts 253°
2026-05-07 17:44 -9.16836 -37.62817 6500 ft 97 kts 253°
2026-05-07 17:45 -9.17082 -37.63476 6500 ft 97 kts 253°
2026-05-07 17:45 -9.17340 -37.64162 6500 ft 97 kts 253°
2026-05-07 17:45 -9.17515 -37.64630 6500 ft 97 kts 253°
2026-05-07 17:45 -9.17757 -37.65278 6500 ft 97 kts 253°
2026-05-07 17:46 -9.18009 -37.65949 6500 ft 97 kts 253°
2026-05-07 17:46 -9.18263 -37.66627 6500 ft 97 kts 253°
2026-05-07 17:46 -9.18513 -37.67296 6500 ft 97 kts 253°
2026-05-07 17:46 -9.18767 -37.67972 6500 ft 97 kts 253°
2026-05-07 17:47 -9.18937 -37.68428 6500 ft 97 kts 253°
2026-05-07 17:47 -9.19189 -37.69101 6500 ft 97 kts 253°
2026-05-07 17:47 -9.19445 -37.69783 6500 ft 97 kts 253°
2026-05-07 17:47 -9.19686 -37.70428 6500 ft 97 kts 253°
2026-05-07 17:48 -9.19934 -37.71090 6500 ft 97 kts 253°
2026-05-07 17:48 -9.20183 -37.71755 6500 ft 97 kts 253°
2026-05-07 17:48 -9.20430 -37.72416 6500 ft 97 kts 253°
2026-05-07 17:48 -9.20596 -37.72857 6500 ft 97 kts 253°
2026-05-07 17:49 -9.20836 -37.73499 6500 ft 97 kts 253°
2026-05-07 17:49 -9.21085 -37.74165 6500 ft 97 kts 253°
2026-05-07 17:49 -9.21332 -37.74825 6500 ft 97 kts 253°
2026-05-07 17:49 -9.21574 -37.75471 6500 ft 97 kts 253°
2026-05-07 17:50 -9.21805 -37.76088 6500 ft 97 kts 253°
2026-05-07 17:50 -9.22071 -37.76800 6500 ft 97 kts 253°
2026-05-07 17:50 -9.22309 -37.77437 6500 ft 97 kts 253°
2026-05-07 17:50 -9.22549 -37.78077 6500 ft 97 kts 253°
2026-05-07 17:51 -9.22787 -37.78713 6500 ft 97 kts 253°
2026-05-07 17:51 -9.23030 -37.79362 6500 ft 97 kts 253°
2026-05-07 17:51 -9.23268 -37.79999 6500 ft 97 kts 253°
2026-05-07 17:51 -9.23506 -37.80636 6500 ft 97 kts 253°
2026-05-07 17:52 -9.23744 -37.81273 6500 ft 97 kts 253°
2026-05-07 17:52 -9.23992 -37.81934 6500 ft 97 kts 253°
2026-05-07 17:52 -9.24156 -37.82374 6500 ft 97 kts 253°
2026-05-07 17:52 -9.24400 -37.83026 6500 ft 97 kts 253°
2026-05-07 17:53 -9.24642 -37.83674 6500 ft 97 kts 253°
2026-05-07 17:53 -9.24884 -37.84319 6500 ft 97 kts 253°
2026-05-07 17:53 -9.25125 -37.84964 6500 ft 97 kts 253°
2026-05-07 17:53 -9.25363 -37.85602 6500 ft 97 kts 253°
2026-05-07 17:54 -9.25608 -37.86256 6500 ft 97 kts 253°
2026-05-07 17:54 -9.25849 -37.86902 6500 ft 97 kts 253°
2026-05-07 17:54 -9.26092 -37.87550 6500 ft 97 kts 253°
2026-05-07 17:54 -9.26330 -37.88188 6500 ft 97 kts 253°
2026-05-07 17:55 -9.26566 -37.88818 6500 ft 97 kts 253°
2026-05-07 17:55 -9.26816 -37.89489 6500 ft 97 kts 253°
2026-05-07 17:55 -9.27057 -37.90133 6500 ft 97 kts 253°
2026-05-07 17:55 -9.27295 -37.90770 6500 ft 97 kts 253°
2026-05-07 17:56 -9.27532 -37.91406 6500 ft 97 kts 253°
2026-05-07 17:56 -9.27774 -37.92052 6500 ft 97 kts 253°
2026-05-07 17:56 -9.28010 -37.92683 6500 ft 97 kts 253°
2026-05-07 17:56 -9.28251 -37.93328 6500 ft 97 kts 253°
2026-05-07 17:57 -9.28406 -37.93744 6500 ft 97 kts 253°
2026-05-07 17:57 -9.28444 -37.93846 6500 ft 97 kts 253°
2026-05-07 17:58 -9.28683 -37.94485 6500 ft 97 kts 253°
2026-05-07 17:58 -9.28927 -37.95138 6500 ft 97 kts 253°
2026-05-07 17:58 -9.29084 -37.95558 6500 ft 97 kts 253°
2026-05-07 17:58 -9.29323 -37.96197 6500 ft 97 kts 253°
2026-05-07 17:59 -9.29564 -37.96845 6500 ft 97 kts 253°
2026-05-07 17:59 -9.29802 -37.97481 6500 ft 97 kts 253°
2026-05-07 17:59 -9.30040 -37.98118 6500 ft 97 kts 253°
2026-05-07 17:59 -9.30278 -37.98756 6500 ft 97 kts 253°
2026-05-07 18:00 -9.30516 -37.99392 6500 ft 97 kts 253°
2026-05-07 18:00 -9.30754 -38.00031 6500 ft 97 kts 253°
2026-05-07 18:00 -9.30995 -38.00677 6500 ft 97 kts 253°
2026-05-07 18:00 -9.31233 -38.01314 6500 ft 97 kts 253°
2026-05-07 18:01 -9.31472 -38.01954 6500 ft 97 kts 253°
2026-05-07 18:01 -9.31709 -38.02590 6500 ft 97 kts 253°
2026-05-07 18:01 -9.31947 -38.03227 6500 ft 97 kts 253°
2026-05-07 18:01 -9.32182 -38.03857 6500 ft 97 kts 253°
2026-05-07 18:02 -9.32661 -38.05140 6500 ft 97 kts 253°
2026-05-07 18:02 -9.32899 -38.05777 6500 ft 97 kts 253°
2026-05-07 18:02 -9.33137 -38.06416 6500 ft 97 kts 253°
2026-05-07 18:03 -9.33372 -38.07045 6500 ft 97 kts 253°
2026-05-07 18:03 -9.33610 -38.07683 6500 ft 97 kts 253°
2026-05-07 18:03 -9.33851 -38.08329 6500 ft 97 kts 253°
2026-05-07 18:03 -9.34085 -38.08957 6500 ft 97 kts 253°
2026-05-07 18:04 -9.34323 -38.09595 6500 ft 97 kts 253°
2026-05-07 18:04 -9.34561 -38.10233 6500 ft 97 kts 253°
2026-05-07 18:04 -9.34799 -38.10871 6500 ft 97 kts 253°
2026-05-07 18:04 -9.35040 -38.11517 6500 ft 97 kts 253°
2026-05-07 18:05 -9.35278 -38.12156 6500 ft 97 kts 253°
2026-05-07 18:05 -9.35534 -38.12841 6500 ft 97 kts 253°
2026-05-07 18:05 -9.35775 -38.13486 6500 ft 97 kts 253°
2026-05-07 18:05 -9.36013 -38.14126 6500 ft 97 kts 253°
2026-05-07 18:06 -9.36248 -38.14756 6500 ft 97 kts 253°
2026-05-07 18:06 -9.36486 -38.15394 6500 ft 97 kts 253°
2026-05-07 18:06 -9.36724 -38.16032 6500 ft 97 kts 253°
2026-05-07 18:06 -9.36965 -38.16679 6500 ft 97 kts 253°
2026-05-07 18:07 -9.37203 -38.17317 6500 ft 97 kts 253°
2026-05-07 18:07 -9.37441 -38.17955 6500 ft 97 kts 253°
2026-05-07 18:07 -9.37685 -38.18609 6500 ft 97 kts 253°
2026-05-07 18:07 -9.37920 -38.19240 6500 ft 97 kts 253°
2026-05-07 18:08 -9.38161 -38.19887 6500 ft 97 kts 253°
2026-05-07 18:08 -9.38399 -38.20525 6500 ft 97 kts 253°
2026-05-07 18:08 -9.38636 -38.21162 6500 ft 97 kts 253°
2026-05-07 18:08 -9.38874 -38.21799 6500 ft 97 kts 253°
2026-05-07 18:09 -9.39113 -38.22440 6500 ft 97 kts 253°
2026-05-07 18:09 -9.39347 -38.23070 6500 ft 97 kts 253°
2026-05-07 18:09 -9.39586 -38.23709 6500 ft 97 kts 253°
2026-05-07 18:09 -9.39824 -38.24347 6500 ft 97 kts 253°
2026-05-07 18:10 -9.40066 -38.24994 6500 ft 97 kts 253°
2026-05-07 18:10 -9.40304 -38.25624 6500 ft 97 kts 252°
2026-05-07 18:10 -9.40782 -38.26106 6490 ft 110 kts 203°
2026-05-07 18:10 -9.41533 -38.25850 6498 ft 128 kts 140°
2026-05-07 18:11 -9.41757 -38.24989 6500 ft 132 kts 75°
2026-05-07 18:11 -9.41449 -38.24477 6501 ft 124 kts 32°
2026-05-07 18:11 -9.40519 -38.24488 6504 ft 97 kts 308°
2026-05-07 18:11 -9.40194 -38.25059 6523 ft 93 kts 281°
2026-05-07 18:12 -9.40335 -38.25692 6503 ft 100 kts 236°
2026-05-07 18:12 -9.41036 -38.25855 6499 ft 119 kts 172°
2026-05-07 18:12 -9.41611 -38.25222 6500 ft 132 kts 108°
2026-05-07 18:12 -9.41574 -38.24603 6500 ft 131 kts 64°
2026-05-07 18:13 -9.40943 -38.24070 6500 ft 114 kts
2026-05-07 18:13 -9.40319 -38.24339 6504 ft 95 kts 298°
2026-05-07 18:13 -9.40125 -38.24958 6525 ft 93 kts 271°
2026-05-07 18:13 -9.40287 -38.25601 6512 ft 97 kts 247°
2026-05-07 18:14 -9.40888 -38.25941 6496 ft 115 kts 187°
2026-05-07 18:14 -9.41577 -38.25482 6499 ft 131 kts 123°
2026-05-07 18:14 -9.41595 -38.24585 6500 ft 130 kts 59°
2026-05-07 18:14 -9.40934 -38.24108 6500 ft 112 kts 355°
2026-05-07 18:15 -9.40340 -38.24428 6510 ft 95 kts 296°
2026-05-07 18:15 -9.40143 -38.25045 6521 ft 94 kts 271°
2026-05-07 18:15 -9.40333 -38.25680 6508 ft 99 kts 240°
2026-05-07 18:15 -9.41010 -38.25901 6498 ft 118 kts 176°
2026-05-07 18:16 -9.41624 -38.25319 6500 ft 132 kts 112°
2026-05-07 18:16 -9.41503 -38.24437 6500 ft 128 kts 49°
2026-05-07 18:16 -9.40780 -38.24092 6500 ft 108 kts 343°
2026-05-07 18:16 -9.40274 -38.24507 6520 ft 93 kts 292°
2026-05-07 18:17 -9.40143 -38.25137 6519 ft 94 kts 265°
2026-05-07 18:17 -9.40397 -38.25754 6503 ft 101 kts 232°
2026-05-07 18:17 -9.41119 -38.25871 6498 ft 121 kts 168°
2026-05-07 18:17 -9.41661 -38.25202 6500 ft 133 kts 104°
2026-05-07 18:18 -9.41431 -38.24348 6500 ft 126 kts 40°
2026-05-07 18:18 -9.40696 -38.24113 6500 ft 106 kts 336°
2026-05-07 18:18 -9.40242 -38.24588 6527 ft 93 kts 290°
2026-05-07 18:18 -9.40157 -38.25230 6517 ft 95 kts 262°
2026-05-07 18:19 -9.40474 -38.25817 6499 ft 104 kts 223°
2026-05-07 18:19 -9.41225 -38.25820 6498 ft 123 kts 159°
2026-05-07 18:19 -9.41680 -38.25070 6500 ft 133 kts 95°
2026-05-07 18:19 -9.41339 -38.24262 6500 ft 123 kts 31°
2026-05-07 18:20 -9.40596 -38.24150 6500 ft 103 kts 327°
2026-05-07 18:20 -9.40258 -38.24549 6524 ft 93 kts 291°
2026-05-07 18:20 -9.40138 -38.25035 6522 ft 94 kts 270°
2026-05-07 18:21 -9.40328 -38.25673 6509 ft 99 kts 241°
2026-05-07 18:21 -9.40996 -38.25910 6497 ft 118 kts 178°
2026-05-07 18:21 -9.41627 -38.25330 6500 ft 132 kts 113°
2026-05-07 18:21 -9.41515 -38.24435 6447 ft 133 kts 51°
2026-05-07 18:22 -9.40865 -38.23779 6345 ft 133 kts 34°
2026-05-07 18:22 -9.40457 -38.23427 6257 ft 136 kts 33°
2026-05-07 18:22 -9.39734 -38.22806 6099 ft 138 kts 34°
2026-05-07 18:22 -9.39103 -38.22241 5953 ft 140 kts 38°
2026-05-07 18:23 -9.38517 -38.21607 5804 ft 141 kts 44°
2026-05-07 18:23 -9.37928 -38.20840 5645 ft 140 kts 49°
2026-05-07 18:23 -9.37383 -38.20032 5528 ft 137 kts 52°
2026-05-07 18:23 -9.37058 -38.19517 5498 ft 132 kts 53°
2026-05-07 18:24 -9.36508 -38.18613 5485 ft 126 kts 54°
2026-05-07 18:24 -9.36067 -38.17865 5489 ft 123 kts 54°
2026-05-07 18:24 -9.35612 -38.17080 5494 ft 121 kts 54°
2026-05-07 18:24 -9.35190 -38.16345 5497 ft 121 kts 54°
2026-05-07 18:25 -9.34771 -38.15609 5499 ft 120 kts 55°
2026-05-07 18:25 -9.34354 -38.14873 5500 ft 120 kts 55°
2026-05-07 18:25 -9.33935 -38.14132 5500 ft 120 kts 55°
2026-05-07 18:25 -9.33519 -38.13396 5500 ft 121 kts 55°
2026-05-07 18:26 -9.33103 -38.12659 5500 ft 121 kts 55°
2026-05-07 18:26 -9.32687 -38.11923 5500 ft 121 kts 55°
2026-05-07 18:26 -9.32271 -38.11184 5500 ft 121 kts 55°
2026-05-07 18:26 -9.31855 -38.10448 5500 ft 121 kts 55°
2026-05-07 18:27 -9.31438 -38.09710 5500 ft 121 kts 55°
2026-05-07 18:27 -9.31023 -38.08974 5500 ft 121 kts 55°
2026-05-07 18:27 -9.30607 -38.08237 5500 ft 121 kts 55°
2026-05-07 18:27 -9.30196 -38.07508 5500 ft 121 kts 55°
2026-05-07 18:28 -9.29780 -38.06772 5500 ft 121 kts 55°
2026-05-07 18:28 -9.29363 -38.06033 5500 ft 121 kts 55°
2026-05-07 18:28 -9.28941 -38.05285 5500 ft 121 kts 55°
2026-05-07 18:28 -9.28520 -38.04539 5500 ft 121 kts 55°
2026-05-07 18:29 -9.28092 -38.03781 5500 ft 121 kts 55°
2026-05-07 18:29 -9.27676 -38.03045 5500 ft 121 kts 55°
2026-05-07 18:29 -9.27259 -38.02307 5500 ft 121 kts 55°
2026-05-07 18:29 -9.26843 -38.01571 5500 ft 121 kts 55°
2026-05-07 18:30 -9.26426 -38.00832 5500 ft 121 kts 55°
2026-05-07 18:30 -9.26011 -38.00096 5500 ft 121 kts 55°
2026-05-07 18:30 -9.25594 -37.99359 5500 ft 121 kts 55°
2026-05-07 18:30 -9.25178 -37.98621 5500 ft 121 kts 55°
2026-05-07 18:31 -9.24761 -37.97883 5500 ft 121 kts 55°
2026-05-07 18:31 -9.24345 -37.97147 5500 ft 121 kts 55°
2026-05-07 18:31 -9.23928 -37.96408 5500 ft 121 kts 55°
2026-05-07 18:31 -9.23510 -37.95669 5500 ft 121 kts 55°
2026-05-07 18:32 -9.23094 -37.94933 5500 ft 121 kts 55°
2026-05-07 18:32 -9.22678 -37.94197 5500 ft 121 kts 55°
2026-05-07 18:32 -9.22261 -37.93458 5500 ft 121 kts 55°
2026-05-07 18:32 -9.21850 -37.92731 5500 ft 121 kts 55°
2026-05-07 18:33 -9.21429 -37.91986 5500 ft 121 kts 55°
2026-05-07 18:33 -9.21016 -37.91257 5500 ft 121 kts 55°
2026-05-07 18:33 -9.20599 -37.90518 5500 ft 121 kts 55°
2026-05-07 18:33 -9.20183 -37.89782 5500 ft 121 kts 55°
2026-05-07 18:34 -9.19766 -37.89044 5500 ft 121 kts 55°
2026-05-07 18:34 -9.19347 -37.88304 5500 ft 121 kts 55°
2026-05-07 18:34 -9.18936 -37.87577 5500 ft 121 kts 55°
2026-05-07 18:34 -9.18520 -37.86840 5500 ft 121 kts 55°
2026-05-07 18:35 -9.18103 -37.86104 5500 ft 121 kts 55°
2026-05-07 18:35 -9.17684 -37.85363 5500 ft 121 kts 55°
2026-05-07 18:35 -9.17268 -37.84627 5500 ft 121 kts 55°
2026-05-07 18:35 -9.16851 -37.83889 5500 ft 121 kts 55°
2026-05-07 18:36 -9.16434 -37.83152 5500 ft 121 kts 55°
2026-05-07 18:36 -9.16016 -37.82413 5500 ft 121 kts 55°
2026-05-07 18:36 -9.15599 -37.81676 5500 ft 121 kts 55°
2026-05-07 18:36 -9.15182 -37.80938 5500 ft 121 kts 55°
2026-05-07 18:37 -9.14765 -37.80201 5500 ft 121 kts 55°
2026-05-07 18:37 -9.14354 -37.79474 5500 ft 121 kts 55°
2026-05-07 18:37 -9.13936 -37.78737 5500 ft 121 kts 55°
2026-05-07 18:37 -9.13514 -37.77989 5500 ft 121 kts 55°
2026-05-07 18:38 -9.13097 -37.77253 5500 ft 121 kts 55°
2026-05-07 18:38 -9.12680 -37.76516 5500 ft 121 kts 55°
2026-05-07 18:38 -9.12264 -37.75780 5500 ft 121 kts 55°
2026-05-07 18:38 -9.11845 -37.75041 5500 ft 121 kts 55°
2026-05-07 18:39 -9.11430 -37.74307 5500 ft 121 kts 55°
2026-05-07 18:39 -9.11012 -37.73569 5500 ft 121 kts 55°
2026-05-07 18:39 -9.10596 -37.72833 5500 ft 121 kts 55°
2026-05-07 18:39 -9.10179 -37.72097 5500 ft 121 kts 55°
2026-05-07 18:40 -9.09761 -37.71360 5500 ft 121 kts 55°
2026-05-07 18:40 -9.09345 -37.70624 5500 ft 121 kts 55°
2026-05-07 18:40 -9.08932 -37.69895 5500 ft 121 kts 55°
2026-05-07 18:40 -9.08515 -37.69159 5500 ft 121 kts 55°
2026-05-07 18:41 -9.08092 -37.68412 5500 ft 121 kts 55°
2026-05-07 18:41 -9.07680 -37.67683 5500 ft 121 kts 55°
2026-05-07 18:41 -9.07261 -37.66943 5500 ft 121 kts 55°
2026-05-07 18:41 -9.06843 -37.66206 5500 ft 121 kts 55°
2026-05-07 18:42 -9.06426 -37.65469 5500 ft 121 kts 55°
2026-05-07 18:42 -9.06009 -37.64733 5500 ft 121 kts 55°
2026-05-07 18:42 -9.05727 -37.64236 5500 ft 121 kts 55°
2026-05-07 18:42 -9.05173 -37.63258 5500 ft 121 kts 55°
2026-05-07 18:43 -9.04892 -37.62761 5500 ft 121 kts 55°
2026-05-07 18:43 -9.04469 -37.62015 5500 ft 121 kts 55°
2026-05-07 18:43 -9.04051 -37.61277 5500 ft 121 kts 55°
2026-05-07 18:43 -9.03635 -37.60543 5500 ft 121 kts 55°
2026-05-07 18:44 -9.03215 -37.59801 5500 ft 121 kts 55°
2026-05-07 18:44 -9.02803 -37.59074 5500 ft 121 kts 55°
2026-05-07 18:44 -9.02380 -37.58328 5500 ft 121 kts 55°
2026-05-07 18:44 -9.01963 -37.57593 5500 ft 121 kts 55°
2026-05-07 18:45 -9.01546 -37.56856 5500 ft 121 kts 55°
2026-05-07 18:45 -9.01127 -37.56117 5500 ft 121 kts 55°
2026-05-07 18:45 -9.00710 -37.55382 5500 ft 121 kts 55°
2026-05-07 18:45 -9.00286 -37.54633 5500 ft 121 kts 55°
2026-05-07 18:46 -8.99868 -37.53895 5500 ft 121 kts 55°
2026-05-07 18:46 -8.99454 -37.53166 5500 ft 121 kts 55°
2026-05-07 18:46 -8.99111 -37.52560 5500 ft 121 kts 55°
2026-05-07 18:47 -8.98762 -37.51945 5500 ft 121 kts 55°
2026-05-07 18:47 -8.98344 -37.51209 5500 ft 121 kts 55°
2026-05-07 18:47 -8.97926 -37.50471 5500 ft 121 kts 55°
2026-05-07 18:47 -8.97506 -37.49730 5499 ft 121 kts 54°
2026-05-07 18:48 -8.97085 -37.48987 5500 ft 121 kts 54°
2026-05-07 18:48 -8.96669 -37.48255 5500 ft 121 kts 54°
2026-05-07 18:48 -8.96244 -37.47505 5501 ft 121 kts 55°
2026-05-07 18:48 -8.95824 -37.46763 5500 ft 121 kts 55°
2026-05-07 18:49 -8.95396 -37.46011 5500 ft 121 kts 55°
2026-05-07 18:49 -8.94977 -37.45270 5500 ft 121 kts 55°
2026-05-07 18:49 -8.94556 -37.44530 5500 ft 121 kts 54°
2026-05-07 18:49 -8.94137 -37.43790 5500 ft 121 kts 54°
2026-05-07 18:50 -8.93716 -37.43049 5500 ft 121 kts 54°
2026-05-07 18:50 -8.93295 -37.42306 5500 ft 121 kts 54°
2026-05-07 18:50 -8.92872 -37.41562 5500 ft 121 kts 54°
2026-05-07 18:50 -8.92452 -37.40821 5500 ft 121 kts 54°
2026-05-07 18:51 -8.92031 -37.40080 5500 ft 121 kts 54°
2026-05-07 18:51 -8.91611 -37.39339 5500 ft 121 kts 54°
2026-05-07 18:51 -8.91185 -37.38588 5500 ft 121 kts 54°
2026-05-07 18:51 -8.90764 -37.37846 5500 ft 121 kts 54°
2026-05-07 18:52 -8.90342 -37.37102 5500 ft 121 kts 54°
2026-05-07 18:52 -8.89921 -37.36362 5500 ft 121 kts 54°
2026-05-07 18:52 -8.89499 -37.35619 5500 ft 121 kts 54°
2026-05-07 18:52 -8.89079 -37.34879 5500 ft 121 kts 54°
2026-05-07 18:53 -8.88658 -37.34137 5500 ft 121 kts 54°
2026-05-07 18:53 -8.88231 -37.33386 5500 ft 121 kts 54°
2026-05-07 18:53 -8.87809 -37.32643 5500 ft 121 kts 54°
2026-05-07 18:53 -8.87511 -37.32117 5500 ft 121 kts 54°
2026-05-07 18:54 -8.87247 -37.31651 5500 ft 121 kts 54°
2026-05-07 18:54 -8.86810 -37.30883 5500 ft 121 kts 54°
2026-05-07 18:54 -8.86371 -37.30109 5500 ft 121 kts 55°
2026-05-07 18:54 -8.85947 -37.29364 5500 ft 121 kts 55°
2026-05-07 18:55 -8.85495 -37.28568 5500 ft 121 kts 55°
2026-05-07 18:55 -8.85070 -37.27819 5500 ft 121 kts 55°
2026-05-07 18:55 -8.84644 -37.27069 5500 ft 121 kts 55°
2026-05-07 18:55 -8.84219 -37.26320 5500 ft 121 kts 55°
2026-05-07 18:56 -8.83931 -37.25814 5500 ft 121 kts 55°
2026-05-07 18:56 -8.83505 -37.25064 5500 ft 121 kts 55°
2026-05-07 18:56 -8.83086 -37.24327 5500 ft 121 kts 55°
2026-05-07 18:56 -8.82667 -37.23590 5500 ft 121 kts 55°
2026-05-07 18:57 -8.82243 -37.22844 5500 ft 121 kts 55°
2026-05-07 18:57 -8.81824 -37.22106 5500 ft 121 kts 55°
2026-05-07 18:57 -8.81398 -37.21357 5500 ft 121 kts 55°
2026-05-07 18:57 -8.80978 -37.20619 5500 ft 121 kts 55°
2026-05-07 18:58 -8.80540 -37.19847 5500 ft 121 kts 55°
2026-05-07 18:58 -8.80118 -37.19104 5500 ft 121 kts 55°
2026-05-07 18:58 -8.79692 -37.18356 5500 ft 121 kts 55°
2026-05-07 18:58 -8.79273 -37.17619 5500 ft 121 kts 55°
2026-05-07 18:59 -8.78842 -37.16861 5500 ft 121 kts 55°
2026-05-07 18:59 -8.78423 -37.16123 5500 ft 121 kts 55°
2026-05-07 18:59 -8.77993 -37.15367 5500 ft 121 kts 55°
2026-05-07 18:59 -8.77562 -37.14609 5500 ft 121 kts 55°
2026-05-07 19:00 -8.77138 -37.13864 5500 ft 121 kts 55°
2026-05-07 19:00 -8.76721 -37.13130 5500 ft 121 kts 55°
2026-05-07 19:00 -8.76295 -37.12382 5500 ft 121 kts 55°
2026-05-07 19:00 -8.75876 -37.11645 5500 ft 121 kts 55°
2026-05-07 19:01 -8.75577 -37.11119 5500 ft 121 kts 55°
2026-05-07 19:01 -8.75153 -37.10374 5500 ft 121 kts 55°
2026-05-07 19:01 -8.74727 -37.09624 5500 ft 121 kts 55°
2026-05-07 19:01 -8.74309 -37.08890 5500 ft 121 kts 55°
2026-05-07 19:02 -8.73886 -37.08146 5500 ft 121 kts 55°
2026-05-07 19:02 -8.73467 -37.07411 5500 ft 121 kts 55°
2026-05-07 19:02 -8.73042 -37.06664 5500 ft 121 kts 55°
2026-05-07 19:02 -8.72619 -37.05920 5500 ft 121 kts 55°
2026-05-07 19:03 -8.72190 -37.05165 5500 ft 121 kts 55°
2026-05-07 19:03 -8.71764 -37.04417 5500 ft 121 kts 55°
2026-05-07 19:03 -8.71344 -37.03680 5500 ft 121 kts 55°
2026-05-07 19:03 -8.70922 -37.02937 5500 ft 121 kts 55°
2026-05-07 19:04 -8.70503 -37.02201 5500 ft 121 kts 55°
2026-05-07 19:04 -8.70083 -37.01464 5500 ft 121 kts 55°
2026-05-07 19:04 -8.69664 -37.00728 5500 ft 121 kts 55°
2026-05-07 19:04 -8.69242 -36.99986 5500 ft 121 kts 55°
2026-05-07 19:05 -8.68813 -36.99233 5500 ft 121 kts 55°
2026-05-07 19:05 -8.68388 -36.98487 5500 ft 121 kts 55°
2026-05-07 19:05 -8.67969 -36.97751 5500 ft 121 kts 55°
2026-05-07 19:05 -8.67551 -36.97016 5500 ft 121 kts 55°
2026-05-07 19:06 -8.67131 -36.96278 5500 ft 121 kts 55°
2026-05-07 19:06 -8.66292 -36.94805 5500 ft 121 kts 55°
2026-05-07 19:06 -8.65873 -36.94070 5500 ft 121 kts 55°
2026-05-07 19:07 -8.65454 -36.93333 5500 ft 121 kts 55°
2026-05-07 19:07 -8.65035 -36.92598 5500 ft 121 kts 55°
2026-05-07 19:07 -8.64615 -36.91862 5500 ft 121 kts 55°
2026-05-07 19:07 -8.64196 -36.91126 5500 ft 121 kts 55°
2026-05-07 19:08 -8.63776 -36.90388 5500 ft 121 kts 55°
2026-05-07 19:08 -8.63356 -36.89651 5500 ft 121 kts 55°
2026-05-07 19:08 -8.62936 -36.88913 5500 ft 121 kts 55°
2026-05-07 19:08 -8.62518 -36.88180 5500 ft 121 kts 55°
2026-05-07 19:09 -8.62097 -36.87442 5500 ft 121 kts 55°
2026-05-07 19:09 -8.61684 -36.86717 5500 ft 121 kts 55°
2026-05-07 19:09 -8.61259 -36.85972 5500 ft 121 kts 55°
2026-05-07 19:09 -8.60840 -36.85237 5500 ft 121 kts 55°
2026-05-07 19:10 -8.60428 -36.84513 5500 ft 121 kts 55°
2026-05-07 19:10 -8.60003 -36.83768 5500 ft 121 kts 55°
2026-05-07 19:10 -8.59590 -36.83043 5500 ft 121 kts 55°
2026-05-07 19:10 -8.59170 -36.82307 5500 ft 121 kts 55°
2026-05-07 19:11 -8.58752 -36.81573 5500 ft 121 kts 55°
2026-05-07 19:11 -8.58331 -36.80835 5500 ft 121 kts 55°
2026-05-07 19:11 -8.57912 -36.80099 5500 ft 121 kts 55°
2026-05-07 19:11 -8.57493 -36.79364 5500 ft 121 kts 55°
2026-05-07 19:12 -8.57074 -36.78630 5500 ft 121 kts 55°
2026-05-07 19:12 -8.56654 -36.77893 5500 ft 121 kts 55°
2026-05-07 19:12 -8.56235 -36.77159 5500 ft 121 kts 55°
2026-05-07 19:12 -8.55816 -36.76425 5500 ft 121 kts 55°
2026-05-07 19:13 -8.55398 -36.75692 5500 ft 121 kts 55°
2026-05-07 19:13 -8.54984 -36.74964 5500 ft 121 kts 55°
2026-05-07 19:13 -8.54564 -36.74229 5500 ft 121 kts 55°
2026-05-07 19:13 -8.54145 -36.73495 5500 ft 121 kts 55°
2026-05-07 19:14 -8.53721 -36.72752 5500 ft 121 kts 55°
2026-05-07 19:14 -8.53302 -36.72017 5500 ft 121 kts 55°
2026-05-07 19:14 -8.52884 -36.71284 5500 ft 121 kts 55°
2026-05-07 19:14 -8.52464 -36.70548 5500 ft 121 kts 55°
2026-05-07 19:15 -8.52046 -36.69814 5500 ft 121 kts 55°
2026-05-07 19:15 -8.51627 -36.69081 5500 ft 121 kts 55°
2026-05-07 19:15 -8.51206 -36.68343 5500 ft 121 kts 55°
2026-05-07 19:15 -8.50786 -36.67608 5500 ft 121 kts 55°
2026-05-07 19:16 -8.50368 -36.66874 5500 ft 121 kts 55°
2026-05-07 19:16 -8.50090 -36.66387 5500 ft 121 kts 55°
2026-05-07 19:16 -8.49670 -36.65652 5500 ft 121 kts 55°
2026-05-07 19:16 -8.49250 -36.64916 5500 ft 121 kts 55°
2026-05-07 19:17 -8.48832 -36.64183 5500 ft 121 kts 55°
2026-05-07 19:17 -8.48412 -36.63448 5500 ft 121 kts 55°
2026-05-07 19:17 -8.47993 -36.62714 5500 ft 121 kts 55°
2026-05-07 19:17 -8.47573 -36.61979 5500 ft 121 kts 55°
2026-05-07 19:18 -8.47154 -36.61243 5500 ft 121 kts 55°
2026-05-07 19:18 -8.46735 -36.60510 5500 ft 121 kts 55°
2026-05-07 19:18 -8.46315 -36.59776 5500 ft 121 kts 55°
2026-05-07 19:18 -8.45894 -36.59038 5500 ft 121 kts 55°
2026-05-07 19:19 -8.45474 -36.58303 5500 ft 121 kts 55°
2026-05-07 19:19 -8.45054 -36.57566 5500 ft 121 kts 54°
2026-05-07 19:19 -8.44633 -36.56830 5500 ft 121 kts 54°
2026-05-07 19:19 -8.44212 -36.56093 5500 ft 121 kts 54°
2026-05-07 19:20 -8.43789 -36.55351 5500 ft 121 kts 54°
2026-05-07 19:20 -8.43368 -36.54614 5501 ft 121 kts 54°
2026-05-07 19:20 -8.42949 -36.53881 5500 ft 121 kts 54°
2026-05-07 19:20 -8.42527 -36.53143 5500 ft 121 kts 54°
2026-05-07 19:21 -8.42105 -36.52404 5500 ft 121 kts 54°
2026-05-07 19:21 -8.41683 -36.51666 5500 ft 121 kts 54°
2026-05-07 19:21 -8.41262 -36.50928 5500 ft 121 kts 54°
2026-05-07 19:21 -8.40840 -36.50191 5500 ft 121 kts 54°
2026-05-07 19:22 -8.40418 -36.49451 5500 ft 121 kts 54°
2026-05-07 19:22 -8.39997 -36.48715 5500 ft 121 kts 54°
2026-05-07 19:22 -8.39575 -36.47976 5500 ft 121 kts 54°
2026-05-07 19:22 -8.39153 -36.47238 5500 ft 121 kts 54°
2026-05-07 19:23 -8.38720 -36.46481 5500 ft 121 kts 54°
2026-05-07 19:23 -8.38293 -36.45734 5500 ft 121 kts 54°
2026-05-07 19:23 -8.37890 -36.44986 5498 ft 123 kts 64°
2026-05-07 19:23 -8.37759 -36.44102 5517 ft 124 kts 82°
2026-05-07 19:24 -8.37682 -36.43203 5505 ft 125 kts 80°
2026-05-07 19:24 -8.37582 -36.42328 5501 ft 125 kts 79°
2026-05-07 19:24 -8.37465 -36.41456 5500 ft 125 kts 78°
2026-05-07 19:24 -8.37338 -36.40585 5500 ft 125 kts 77°
2026-05-07 19:25 -8.37207 -36.39718 5500 ft 125 kts 77°
2026-05-07 19:25 -8.37067 -36.38815 5500 ft 125 kts 77°
2026-05-07 19:25 -8.36931 -36.37949 5500 ft 125 kts 77°
2026-05-07 19:25 -8.36795 -36.37083 5500 ft 125 kts 77°
2026-05-07 19:26 -8.36658 -36.36217 5500 ft 125 kts 77°
2026-05-07 19:26 -8.36522 -36.35355 5500 ft 125 kts 77°
2026-05-07 19:26 -8.36385 -36.34489 5500 ft 125 kts 77°
2026-05-07 19:26 -8.36247 -36.33622 5500 ft 125 kts 77°
2026-05-07 19:27 -8.36110 -36.32759 5500 ft 125 kts 77°
2026-05-07 19:27 -8.35973 -36.31892 5500 ft 125 kts 77°
2026-05-07 19:27 -8.35835 -36.31023 5500 ft 125 kts 77°
2026-05-07 19:27 -8.35698 -36.30157 5500 ft 125 kts 77°
2026-05-07 19:28 -8.35561 -36.29292 5500 ft 125 kts 77°
2026-05-07 19:28 -8.35423 -36.28423 5500 ft 125 kts 77°
2026-05-07 19:28 -8.35285 -36.27557 5500 ft 125 kts 77°
2026-05-07 19:28 -8.35148 -36.26689 5500 ft 125 kts 77°
2026-05-07 19:29 -8.35010 -36.25819 5500 ft 125 kts 77°
2026-05-07 19:29 -8.34872 -36.24952 5500 ft 125 kts 77°
2026-05-07 19:29 -8.34734 -36.24082 5500 ft 125 kts 77°
2026-05-07 19:29 -8.34596 -36.23214 5500 ft 125 kts 77°
2026-05-07 19:30 -8.34458 -36.22345 5500 ft 125 kts 77°
2026-05-07 19:30 -8.34322 -36.21488 5500 ft 125 kts 77°
2026-05-07 19:30 -8.34182 -36.20608 5500 ft 125 kts 77°
2026-05-07 19:30 -8.34046 -36.19753 5500 ft 125 kts 77°
2026-05-07 19:31 -8.33908 -36.18884 5500 ft 125 kts 77°
2026-05-07 19:31 -8.33770 -36.18015 5500 ft 125 kts 77°
2026-05-07 19:31 -8.33632 -36.17145 5500 ft 125 kts 77°
2026-05-07 19:31 -8.33494 -36.16279 5500 ft 125 kts 77°
2026-05-07 19:32 -8.33356 -36.15408 5500 ft 125 kts 77°
2026-05-07 19:32 -8.33218 -36.14542 5500 ft 125 kts 77°
2026-05-07 19:32 -8.33080 -36.13675 5500 ft 125 kts 77°
2026-05-07 19:32 -8.32942 -36.12807 5500 ft 125 kts 77°
2026-05-07 19:33 -8.32849 -36.12220 5500 ft 125 kts 77°
2026-05-07 19:33 -8.32711 -36.11354 5500 ft 125 kts 77°
2026-05-07 19:33 -8.32573 -36.10485 5500 ft 125 kts 77°
2026-05-07 19:33 -8.32435 -36.09618 5500 ft 125 kts 77°
2026-05-07 19:34 -8.32296 -36.08749 5499 ft 125 kts 77°
2026-05-07 19:34 -8.32158 -36.07878 5500 ft 125 kts 77°
2026-05-07 19:34 -8.32019 -36.07009 5500 ft 125 kts 77°
2026-05-07 19:34 -8.31881 -36.06138 5500 ft 125 kts 77°
2026-05-07 19:35 -8.31742 -36.05267 5500 ft 125 kts 77°
2026-05-07 19:35 -8.31604 -36.04399 5494 ft 125 kts 76°
2026-05-07 19:35 -8.31465 -36.03522 5562 ft 128 kts 77°
2026-05-07 19:35 -8.31311 -36.02581 5519 ft 141 kts 76°
2026-05-07 19:36 -8.31157 -36.01613 5447 ft 134 kts 77°
2026-05-07 19:36 -8.31017 -36.00714 5478 ft 128 kts 77°
2026-05-07 19:36 -8.30878 -35.99837 5491 ft 126 kts 77°
2026-05-07 19:36 -8.30739 -35.98969 5497 ft 125 kts 77°
2026-05-07 19:37 -8.30600 -35.98098 5500 ft 125 kts 77°
2026-05-07 19:37 -8.30461 -35.97230 5500 ft 125 kts 77°
2026-05-07 19:37 -8.30324 -35.96372 5500 ft 125 kts 77°
2026-05-07 19:37 -8.30184 -35.95495 5500 ft 125 kts 77°
2026-05-07 19:38 -8.30045 -35.94625 5500 ft 125 kts 77°
2026-05-07 19:38 -8.29907 -35.93755 5500 ft 125 kts 77°
2026-05-07 19:38 -8.29770 -35.92900 5500 ft 125 kts 77°
2026-05-07 19:38 -8.29631 -35.92028 5500 ft 125 kts 77°
2026-05-07 19:39 -8.29492 -35.91158 5500 ft 125 kts 77°
2026-05-07 19:39 -8.29353 -35.90290 5500 ft 125 kts 77°
2026-05-07 19:39 -8.29214 -35.89420 5500 ft 125 kts 77°
2026-05-07 19:39 -8.29076 -35.88550 5500 ft 125 kts 77°
2026-05-07 19:40 -8.28937 -35.87680 5500 ft 125 kts 77°
2026-05-07 19:40 -8.28798 -35.86812 5500 ft 125 kts 77°
2026-05-07 19:40 -8.28659 -35.85944 5500 ft 125 kts 77°
2026-05-07 19:40 -8.28520 -35.85072 5499 ft 126 kts 77°
2026-05-07 19:41 -8.28379 -35.84190 5500 ft 126 kts 77°
2026-05-07 19:41 -8.28239 -35.83314 5500 ft 126 kts 77°
2026-05-07 19:41 -8.28098 -35.82431 5500 ft 126 kts 77°
2026-05-07 19:41 -8.27956 -35.81542 5500 ft 126 kts 77°
2026-05-07 19:42 -8.27816 -35.80668 5500 ft 126 kts 77°
2026-05-07 19:42 -8.27676 -35.79796 5500 ft 126 kts 77°
2026-05-07 19:42 -8.27537 -35.78923 5500 ft 126 kts 77°
2026-05-07 19:42 -8.27397 -35.78050 5500 ft 126 kts 77°
2026-05-07 19:43 -8.27257 -35.77176 5500 ft 126 kts 77°
2026-05-07 19:43 -8.27115 -35.76289 5500 ft 126 kts 77°
2026-05-07 19:43 -8.26975 -35.75413 5500 ft 126 kts 77°
2026-05-07 19:43 -8.26834 -35.74529 5500 ft 126 kts 77°
2026-05-07 19:44 -8.26695 -35.73665 5500 ft 126 kts 77°
2026-05-07 19:44 -8.26554 -35.72784 5500 ft 126 kts 77°
2026-05-07 19:44 -8.26414 -35.71909 5500 ft 126 kts 77°
2026-05-07 19:44 -8.26274 -35.71036 5500 ft 126 kts 77°
2026-05-07 19:45 -8.26136 -35.70170 5496 ft 123 kts 77°
2026-05-07 19:45 -8.25999 -35.69313 5487 ft 119 kts 76°
2026-05-07 19:45 -8.25870 -35.68503 5489 ft 116 kts 76°
2026-05-07 19:45 -8.25741 -35.67702 5493 ft 114 kts 76°
2026-05-07 19:46 -8.25614 -35.66912 5496 ft 114 kts 76°
2026-05-07 19:46 -8.25486 -35.66117 5499 ft 113 kts 76°
2026-05-07 19:46 -8.25360 -35.65331 5499 ft 113 kts 76°
2026-05-07 19:46 -8.25232 -35.64533 5500 ft 113 kts 76°
2026-05-07 19:47 -8.25106 -35.63747 5500 ft 113 kts 76°
2026-05-07 19:47 -8.24978 -35.62952 5500 ft 113 kts 76°
2026-05-07 19:47 -8.24852 -35.62165 5499 ft 114 kts 76°
2026-05-07 19:47 -8.24726 -35.61377 5500 ft 114 kts 76°
2026-05-07 19:48 -8.24599 -35.60589 5500 ft 114 kts 76°
2026-05-07 19:48 -8.24473 -35.59800 5500 ft 114 kts 76°
2026-05-07 19:48 -8.24345 -35.59005 5500 ft 114 kts 76°
2026-05-07 19:48 -8.24219 -35.58217 5500 ft 114 kts 76°
2026-05-07 19:49 -8.24092 -35.57426 5500 ft 114 kts 76°
2026-05-07 19:49 -8.23965 -35.56634 5500 ft 114 kts 76°
2026-05-07 19:49 -8.23838 -35.55844 5500 ft 114 kts 76°
2026-05-07 19:49 -8.23711 -35.55053 5500 ft 114 kts 76°
2026-05-07 19:50 -8.23627 -35.54529 5500 ft 114 kts 76°
2026-05-07 19:50 -8.23499 -35.53736 5500 ft 114 kts 76°
2026-05-07 19:50 -8.23373 -35.52948 5500 ft 114 kts 76°
2026-05-07 19:50 -8.23245 -35.52155 5500 ft 114 kts 76°
2026-05-07 19:51 -8.23118 -35.51365 5500 ft 114 kts 76°
2026-05-07 19:51 -8.22991 -35.50572 5500 ft 114 kts 76°
2026-05-07 19:51 -8.22863 -35.49778 5500 ft 114 kts 76°
2026-05-07 19:51 -8.22736 -35.48986 5500 ft 114 kts 76°
2026-05-07 19:52 -8.22609 -35.48193 5500 ft 114 kts 76°
2026-05-07 19:52 -8.22481 -35.47401 5500 ft 114 kts 76°
2026-05-07 19:52 -8.22354 -35.46612 5500 ft 114 kts 76°
2026-05-07 19:52 -8.22227 -35.45820 5500 ft 114 kts 76°
2026-05-07 19:53 -8.22100 -35.45028 5500 ft 114 kts 76°
2026-05-07 19:53 -8.21974 -35.44245 5500 ft 114 kts 76°
2026-05-07 19:53 -8.21846 -35.43455 5500 ft 114 kts 76°
2026-05-07 19:53 -8.21719 -35.42663 5500 ft 114 kts 76°
2026-05-07 19:54 -8.21592 -35.41872 5500 ft 114 kts 76°
2026-05-07 19:54 -8.21464 -35.41080 5500 ft 114 kts 76°
2026-05-07 19:54 -8.21337 -35.40289 5500 ft 114 kts 76°
2026-05-07 19:54 -8.21210 -35.39498 5500 ft 114 kts 76°
2026-05-07 19:55 -8.21082 -35.38706 5499 ft 114 kts 76°
2026-05-07 19:55 -8.20954 -35.37910 5500 ft 114 kts 76°
2026-05-07 19:55 -8.20826 -35.37113 5500 ft 115 kts 76°
2026-05-07 19:55 -8.20698 -35.36318 5500 ft 115 kts 76°
2026-05-07 19:56 -8.20570 -35.35524 5500 ft 115 kts 76°
2026-05-07 19:56 -8.20441 -35.34725 5500 ft 115 kts 76°
2026-05-07 19:56 -8.20313 -35.33928 5500 ft 115 kts 76°
2026-05-07 19:56 -8.20184 -35.33132 5500 ft 115 kts 76°
2026-05-07 19:57 -8.20056 -35.32335 5500 ft 115 kts 76°
2026-05-07 19:57 -8.19929 -35.31545 5500 ft 115 kts 76°
2026-05-07 19:57 -8.19799 -35.30741 5500 ft 115 kts 76°
2026-05-07 19:57 -8.19671 -35.29944 5500 ft 115 kts 76°
2026-05-07 19:58 -8.19542 -35.29146 5500 ft 115 kts 76°
2026-05-07 19:58 -8.19412 -35.28339 5500 ft 115 kts 76°
2026-05-07 19:58 -8.19281 -35.27526 5500 ft 115 kts 76°
2026-05-07 19:58 -8.19152 -35.26731 5500 ft 115 kts 76°
2026-05-07 19:59 -8.19024 -35.25933 5500 ft 115 kts 76°
2026-05-07 19:59 -8.18895 -35.25135 5500 ft 115 kts 76°
2026-05-07 19:59 -8.18766 -35.24336 5500 ft 115 kts 76°
2026-05-07 19:59 -8.18637 -35.23540 5500 ft 115 kts 76°
2026-05-07 20:00 -8.18509 -35.22744 5500 ft 115 kts 76°
2026-05-07 20:00 -8.18380 -35.21945 5500 ft 115 kts 76°
2026-05-07 20:00 -8.18251 -35.21146 5500 ft 115 kts 76°
2026-05-07 20:00 -8.18124 -35.20357 5500 ft 115 kts 76°
2026-05-07 20:01 -8.17995 -35.19561 5500 ft 115 kts 76°
2026-05-07 20:01 -8.17866 -35.18761 5500 ft 115 kts 76°
2026-05-07 20:01 -8.17737 -35.17965 5500 ft 115 kts 76°
2026-05-07 20:01 -8.17608 -35.17165 5500 ft 115 kts 76°
2026-05-07 20:02 -8.17479 -35.16366 5500 ft 115 kts 76°
2026-05-07 20:02 -8.17349 -35.15562 5500 ft 115 kts 76°
2026-05-07 20:02 -8.17219 -35.14759 5500 ft 115 kts 76°
2026-05-07 20:02 -8.17090 -35.13963 5500 ft 115 kts 76°
2026-05-07 20:03 -8.16961 -35.13162 5500 ft 115 kts 76°
2026-05-07 20:03 -8.16832 -35.12362 5500 ft 115 kts 76°
2026-05-07 20:03 -8.16702 -35.11561 5500 ft 116 kts 76°
2026-05-07 20:03 -8.16573 -35.10760 5500 ft 116 kts 76°
2026-05-07 20:04 -8.16442 -35.09955 5500 ft 116 kts 76°
2026-05-07 20:04 -8.16313 -35.09155 5500 ft 116 kts 76°
2026-05-07 20:04 -8.16183 -35.08353 5500 ft 116 kts 76°
2026-05-07 20:04 -8.16055 -35.07560 5500 ft 116 kts 76°
2026-05-07 20:05 -8.15925 -35.06758 5500 ft 116 kts 76°
2026-05-07 20:05 -8.15795 -35.05956 5500 ft 116 kts 76°
2026-05-07 20:05 -8.15665 -35.05151 5500 ft 116 kts 76°
2026-05-07 20:05 -8.15537 -35.04359 5500 ft 116 kts 76°
2026-05-07 20:06 -8.15407 -35.03558 5500 ft 116 kts 76°
2026-05-07 20:06 -8.15277 -35.02754 5500 ft 116 kts 76°
2026-05-07 20:06 -8.15148 -35.01955 5500 ft 116 kts 76°
2026-05-07 20:06 -8.15018 -35.01153 5500 ft 116 kts 76°
2026-05-07 20:07 -8.14888 -35.00349 5500 ft 116 kts 76°
2026-05-07 20:07 -8.14758 -34.99548 5500 ft 116 kts 76°
2026-05-07 20:07 -8.14628 -34.98746 5500 ft 116 kts 76°
2026-05-07 20:07 -8.14498 -34.97945 5500 ft 116 kts 76°
2026-05-07 20:08 -8.14368 -34.97145 5500 ft 116 kts 76°
2026-05-07 20:08 -8.14237 -34.96333 5500 ft 116 kts 76°
2026-05-07 20:08 -8.14107 -34.95533 5500 ft 116 kts 76°
2026-05-07 20:08 -8.13977 -34.94731 5500 ft 116 kts 76°
2026-05-07 20:09 -8.13847 -34.93930 5500 ft 116 kts 76°
2026-05-07 20:09 -8.13718 -34.93131 5500 ft 116 kts 76°
2026-05-07 20:09 -8.13606 -34.92325 5498 ft 117 kts 85°
2026-05-07 20:10 -8.14707 -34.91647 5498 ft 101 kts 222°
2026-05-07 20:10 -8.14893 -34.92233 5500 ft 90 kts 292°
2026-05-07 20:10 -8.14376 -34.92553 5524 ft 92 kts 344°
2026-05-07 20:10 -8.13749 -34.92705 5522 ft 94 kts 339°
2026-05-07 20:11 -8.13185 -34.93006 5496 ft 93 kts 303°
2026-05-07 20:11 -8.13258 -34.93618 5496 ft 100 kts 234°
2026-05-07 20:11 -8.13949 -34.93756 5499 ft 114 kts 164°
2026-05-07 20:11 -8.14420 -34.93140 5500 ft 116 kts 94°
2026-05-07 20:12 -8.14110 -34.92472 5500 ft 103 kts 24°
2026-05-07 20:12 -8.13497 -34.92529 5500 ft 90 kts 314°
2026-05-07 20:12 -8.13442 -34.93115 5499 ft 96 kts 245°
2026-05-07 20:12 -8.14103 -34.93387 5405 ft 118 kts 177°
2026-05-07 20:13 -8.14592 -34.93118 5327 ft 127 kts 134°
2026-05-07 20:13 -8.14796 -34.92287 5187 ft 112 kts 69°
2026-05-07 20:13 -8.14302 -34.91872 5016 ft 83 kts 354°
2026-05-07 20:13 -8.13945 -34.92209 4861 ft 71 kts 290°
2026-05-07 20:14 -8.13769 -34.92569 4730 ft 66 kts 307°
2026-05-07 20:14 -8.13535 -34.92957 4553 ft 66 kts 291°
2026-05-07 20:14 -8.13489 -34.93386 4386 ft 68 kts 272°
2026-05-07 20:14 -8.13381 -34.93784 4214 ft 65 kts 327°
2026-05-07 20:15 -8.12922 -34.93801 4036 ft 64 kts 355°
2026-05-07 20:15 -8.12483 -34.93906 3863 ft 66 kts 347°
2026-05-07 20:15 -8.12013 -34.94018 3721 ft 72 kts 347°
2026-05-07 20:15 -8.11519 -34.94136 3592 ft 74 kts 347°
2026-05-07 20:16 -8.10994 -34.94262 3463 ft 76 kts 347°
2026-05-07 20:16 -8.10476 -34.94387 3339 ft 77 kts 346°
2026-05-07 20:16 -8.09978 -34.94560 3220 ft 77 kts 338°
2026-05-07 20:16 -8.09801 -34.94633 3177 ft 77 kts 338°
2026-05-07 20:17 -8.09302 -34.94840 3059 ft 78 kts 338°
2026-05-07 20:17 -8.08802 -34.95047 2942 ft 78 kts 338°
2026-05-07 20:17 -8.08303 -34.95253 2825 ft 78 kts 338°
2026-05-07 20:17 -8.07802 -34.95460 2709 ft 78 kts 338°
2026-05-07 20:18 -8.07313 -34.95721 2591 ft 77 kts 328°
2026-05-07 20:18 -8.06858 -34.96011 2476 ft 77 kts 328°
2026-05-07 20:18 -8.06408 -34.96298 2363 ft 77 kts 328°
2026-05-07 20:18 -8.05946 -34.96592 2248 ft 77 kts 328°
2026-05-07 20:19 -8.05523 -34.96862 2143 ft 77 kts 328°
2026-05-07 20:19 -8.05074 -34.96998 2028 ft 78 kts 14°
2026-05-07 20:19 -8.04592 -34.96774 1926 ft 77 kts 23°
2026-05-07 20:19 -8.04095 -34.96563 1813 ft 77 kts 22°
2026-05-07 20:20 -8.03636 -34.96315 1703 ft 77 kts 40°
2026-05-07 20:20 -8.03403 -34.95916 1601 ft 77 kts 79°
2026-05-07 20:20 -8.03427 -34.95401 1498 ft 77 kts 104°
2026-05-07 20:20 -8.03690 -34.94939 1302 ft 86 kts 152°
2026-05-07 20:21 -8.04253 -34.94848 1282 ft 69 kts 168°
2026-05-07 20:21 -8.04766 -34.94733 1091 ft 82 kts 167°
2026-05-07 20:21 -8.05282 -34.94616 1044 ft 74 kts 167°
2026-05-07 20:21 -8.05808 -34.94497 914 ft 76 kts 167°
2026-05-07 20:22 -8.06281 -34.94390 802 ft 72 kts 167°
2026-05-07 20:22 -8.06772 -34.94274 661 ft 70 kts 163°
2026-05-07 20:22 -8.07243 -34.94116 499 ft 72 kts 161°
2026-05-07 20:22 -8.07709 -34.93959 361 ft 71 kts 161°
2026-05-07 20:23 -8.08172 -34.93804 250 ft 66 kts 162°
2026-05-07 20:23 -8.08591 -34.93666 258 ft 61 kts 162°
2026-05-07 20:23 -8.08980 -34.93538 294 ft 60 kts 162°
2026-05-07 20:23 -8.09399 -34.93401 461 ft 66 kts 162°
2026-05-07 20:24 -8.09853 -34.93253 622 ft 70 kts 162°
2026-05-07 20:24 -8.10301 -34.93108 707 ft 63 kts 162°
2026-05-07 20:24 -8.10683 -34.92983 587 ft 59 kts 162°
2026-05-07 20:24 -8.11058 -34.92861 412 ft 58 kts 162°
2026-05-07 20:25 -8.11438 -34.92736 261 ft 63 kts 162°
2026-05-07 20:25 -8.11814 -34.92613 119 ft 58 kts 162°
2026-05-07 20:25 -8.12137 -34.92507 37 ft 34 kts 162°
2026-05-07 20:25 -8.12205 -34.92485 37 ft 0 kts 162°